Hourly Data Report for October 09, 2016

All times are specified in Local Standard Time (LST). Add 1 hour to adjust for Daylight Saving Time where and when it is observed.

CHARLOTTETOWN A
PRINCE EDWARD ISLAND

46°17'21.000" N
63°07'09.000" W
48.50 m
8300301
71706
YYG

Download Data

Hourly Data (October 2016)
Hourly Data Report for October 9, 2016
Temp Definition
°C
Dew Point Temp Definition
°C
Rel Hum Definition
%
Wind Dir Definition
10's deg

Wind Spd Definition
km/h
Visibility Definition
km
Stn Press Definition
kPa
Hmdx Definition


Wind Chill Definition


Weather Definition


TIME
00:00 Legend Double Dagger 14.9 11.5 80 19 29 24.1 101.13     LegendNANA
01:00 Legend Double Dagger 15.2 12.4 83 19 33 24.1 101.09     LegendNANA
02:00 Legend Double Dagger 15.5 13.2 86 19 25 24.1 101.01     Cloudy
03:00 Legend Double Dagger 16.0 13.5 85 20 31 24.1 101.01     LegendNANA
04:00 Legend Double Dagger 15.9 13.8 87 20 23 24.1 100.98     LegendNANA
05:00 Legend Double Dagger 16.3 14.3 88 21 17 24.1 101.03     Cloudy
06:00 Legend Double Dagger 16.0 14.4 90 19 21 24.1 100.98     LegendNANA
07:00 Legend Double Dagger 16.2 14.6 90 20 17 24.1 100.96     LegendNANA
08:00 Legend Double Dagger 16.7 15.1 90 20 18 24.1 101.01     Cloudy
09:00 Legend Double Dagger 16.8 15.3 91 20 19 24.1 101.04     LegendNANA
10:00 Legend Double Dagger 17.3 15.5 89 22 14 24.1 101.02     LegendNANA
11:00 Legend Double Dagger 16.6 15.5 93 24 7 24.1 101.00     Rain
12:00 Legend Double Dagger 16.3 15.2 93 25 9 9.7 101.02     Rain,Fog
13:00 Legend Double Dagger 14.9 14.0 94 32 21 16.1 101.04     LegendNANA
14:00 Legend Double Dagger 13.1 12.2 94 34 17 19.3 101.10     Rain
15:00 Legend Double Dagger 12.3 11.1 92 34 14 24.1 101.10     LegendNANA
16:00 Legend Double Dagger 11.7 9.5 86 1 12 24.1 101.15     LegendNANA
17:00 Legend Double Dagger 11.0 9.3 89 36 14 24.1 101.14     Cloudy
18:00 Legend Double Dagger 10.8 8.2 84 36 11 24.1 101.23     LegendNANA
19:00 Legend Double Dagger 10.5 7.2 80 1 18 24.1 101.26     LegendNANA
20:00 Legend Double Dagger 10.2 6.8 79 2 16 24.1 101.25     Cloudy
21:00 Legend Double Dagger 10.5 6.7 77 3 17 24.1 101.20     Rain
22:00 Legend Double Dagger 10.4 7.3 81 3 18 9.7 101.14     Rain,Fog
23:00 Legend Double Dagger 9.7 8.3 91 5 15 8.1 101.08     Rain,Fog

Notes on Data Quality.

Legend

  • E = Estimated
  • M = Missing
  • NA = Not Available
  • ‡ = Partner data that is not subject to review by the National Climate Archives
Date modified: